| time (UTC) | temp F | wind direction | speed knots | gust knots | rain 1hr in | rain 24hr in | rain mn in | humidity % | barometer mb |
| 20260506034551 | 68 | 20 | 4.3 | 11.3 | 0.00 | 0.05 | 0.05 | 80 | 1024.3 |
| 20260506033049 | 68 | 5 | 6.1 | 11.3 | 0.00 | 0.05 | 0.05 | 80 | 1024.3 |
| 20260506031558 | 68 | 46 | 3.5 | 7.0 | 0.00 | 0.05 | 0.05 | 83 | 1024.4 |
| 20260506030105 | 68 | 50 | 3.5 | 11.3 | 0.00 | 0.05 | 0.05 | 82 | 1024.3 |
| 20260506024547 | 67 | 98 | 3.5 | 7.8 | 0.00 | 0.05 | 0.05 | 83 | 1024.6 |
| 20260506023047 | 68 | 43 | 4.3 | 9.6 | 0.00 | 0.05 | 0.05 | 80 | 1024.4 |
| 20260506021545 | 68 | 67 | 4.3 | 13.0 | 0.00 | 0.05 | 0.05 | 83 | 1024.5 |
| 20260506020044 | 67 | 17 | 5.2 | 9.6 | 0.00 | 0.05 | 0.05 | 83 | 1024.6 |
| 20260506014542 | 68 | 26 | 4.3 | 10.4 | 0.00 | 0.05 | 0.05 | 83 | 1024.6 |
| 20260506013045 | 68 | 5 | 6.1 | 10.4 | 0.01 | 0.05 | 0.05 | 83 | 1024.8 |
| 20260506011539 | 68 | 52 | 1.7 | 9.6 | 0.01 | 0.05 | 0.05 | 85 | 1024.8 |
| 20260506010037 | 68 | 22 | 4.3 | 9.6 | 0.01 | 0.05 | 0.05 | 84 | 1024.8 |
| 20260506004603 | 68 | 28 | 4.3 | 10.4 | 0.01 | 0.05 | 0.05 | 84 | 1025.0 |
| 20260506003033 | 68 | 28 | 5.2 | 10.4 | 0.00 | 0.04 | 0.04 | 84 | 1025.1 |
| 20260506001529 | 68 | 28 | 4.3 | 9.6 | 0.00 | 0.04 | 0.04 | 82 | 1025.4 |
| 20260506000025 | 67 | 42 | 5.2 | 13.0 | 0.00 | 0.04 | 0.04 | 85 | 1025.6 |
| 20260505234548 | 66 | 49 | 4.3 | 7.8 | 0.03 | 0.04 | 0.04 | 88 | 1025.8 |
| 20260505233021 | 64 | 86 | 4.3 | 7.8 | 0.04 | 0.04 | 0.04 | 89 | 1025.8 |
| 20260505231519 | 63 | 79 | 3.5 | 8.7 | 0.04 | 0.04 | 0.04 | 90 | 1026.0 |
| 20260505230019 | 62 | 17 | 2.6 | 9.6 | 0.04 | 0.04 | 0.04 | 90 | 1026.3 |
| 20260505224527 | 63 | 21 | 5.2 | 11.3 | 0.01 | 0.01 | 0.01 | 88 | 1026.5 |
| 20260505223018 | 64 | 91 | 4.3 | 9.6 | 0.00 | 0.00 | 0.00 | 87 | 1026.4 |
| 20260505221517 | 65 | 98 | 6.1 | 9.6 | 0.00 | 0.00 | 0.00 | 85 | 1026.5 |
| 20260505220015 | 65 | 86 | 2.6 | 6.1 | 0.00 | 0.00 | 0.00 | 85 | 1026.6 |
| 20260505214516 | 64 | 32 | 1.7 | 7.0 | 0.00 | 0.00 | 0.00 | 90 | 1026.7 |
| 20260505213012 | 63 | 74 | 2.6 | 7.0 | 0.00 | 0.00 | 0.00 | 91 | 1026.8 |
| 20260505211508 | 63 | 85 | 2.6 | 7.0 | 0.00 | 0.00 | 0.00 | 91 | 1026.8 |
| 20260505210010 | 63 | 93 | 2.6 | 7.8 | 0.00 | 0.00 | 0.00 | 91 | 1026.7 |
| 20260505204506 | 63 | 101 | 3.5 | 7.0 | 0.00 | 0.00 | 0.00 | 91 | 1026.7 |
| 20260505203005 | 62 | 104 | 5.2 | 10.4 | 0.00 | 0.00 | 0.00 | 92 | 1026.6 |
| 20260505201505 | 62 | 96 | 6.1 | 7.8 | 0.00 | 0.00 | 0.00 | 92 | 1026.4 |
| 20260505200108 | 62 | 111 | 3.5 | 7.8 | 0.00 | 0.00 | 0.00 | 92 | 1026.3 |
| 20260505194502 | 62 | 102 | 0.0 | 0.0 | 0.00 | 0.00 | 0.00 | 92 | 1026.3 |
| 20260505193001 | 61 | 88 | 0.0 | 0.0 | 0.00 | 0.00 | 0.00 | 92 | 1026.3 |
| 20260505191600 | 61 | 82 | 0.0 | 0.0 | 0.00 | 0.00 | 0.00 | 92 | 1026.2 |
| 20260505190106 | 61 | 92 | 0.0 | 0.0 | 0.00 | 0.00 | 0.00 | 92 | 1026.2 |
| 20260505184559 | 60 | 85 | 0.0 | 0.0 | 0.00 | 0.00 | 0.00 | 92 | 1026.1 |
| 20260505183100 | 61 | 86 | 0.0 | 0.0 | 0.00 | 0.00 | 0.00 | 92 | 1026.0 |
| 20260505181557 | 60 | 103 | 0.0 | 0.0 | 0.00 | 0.00 | 0.00 | 92 | 1025.9 |
| 20260505174558 | 60 | 103 | 0.0 | 0.0 | 0.00 | 0.00 | 0.00 | 92 | 1025.9 |
| 20260505173055 | 60 | 105 | 0.0 | 0.0 | 0.00 | 0.00 | 0.00 | 91 | 1025.9 |
| 20260505171554 | 60 | 107 | 0.0 | 0.0 | 0.00 | 0.00 | 0.00 | 91 | 1026.0 |
| 20260505170053 | 60 | 107 | 0.0 | 0.0 | 0.00 | 0.00 | 0.00 | 91 | 1025.9 |
| 20260505164604 | 60 | 63 | 0.0 | 0.0 | 0.00 | 0.00 | 0.00 | 90 | 1026.1 |
| 20260505163051 | 61 | 63 | 0.0 | 2.6 | 0.00 | 0.00 | 0.00 | 90 | 1026.1 |
| 20260505161551 | 61 | 63 | 1.7 | 3.5 | 0.00 | 0.00 | 0.00 | 90 | 1026.1 |
| 20260505153048 | 62 | 77 | 1.7 | 3.5 | 0.00 | 0.00 | 0.00 | 90 | 1026.2 |
| 20260505151545 | 62 | 75 | 1.7 | 4.3 | 0.00 | 0.00 | 0.00 | 90 | 1026.2 |
| 20260505124528 | 62 | 69 | 1.7 | 3.5 | 0.00 | 0.01 | 0.00 | 88 | 1027.5 |
| 20260505123028 | 62 | 72 | 0.9 | 4.3 | 0.00 | 0.01 | 0.00 | 88 | 1027.6 |
| 20260505121525 | 62 | 76 | 0.9 | 3.5 | 0.00 | 0.01 | 0.00 | 88 | 1027.7 |
| 20260505120123 | 61 | 67 | 0.9 | 3.5 | 0.00 | 0.01 | 0.00 | 88 | 1027.7 |
| 20260505114523 | 61 | 78 | 2.6 | 6.1 | 0.00 | 0.01 | 0.01 | 89 | 1027.6 |
| 20260505113027 | 61 | 78 | 2.6 | 4.3 | 0.00 | 0.01 | 0.01 | 90 | 1027.6 |
| 20260505111521 | 61 | 49 | 3.5 | 7.0 | 0.00 | 0.01 | 0.01 | 90 | 1027.7 |
| 20260505101545 | 62 | 80 | 3.5 | 9.6 | 0.00 | 0.01 | 0.01 | 89 | 1028.2 |
| 20260505100046 | 62 | 72 | 3.5 | 7.8 | 0.00 | 0.01 | 0.01 | 89 | 1028.2 |
| 20260505094543 | 61 | 85 | 3.5 | 6.1 | 0.00 | 0.01 | 0.01 | 89 | 1028.1 |
| 20260505093042 | 61 | 80 | 2.6 | 5.2 | 0.00 | 0.01 | 0.01 | 89 | 1028.2 |
| 20260505091542 | 60 | 80 | 0.9 | 4.3 | 0.00 | 0.01 | 0.01 | 89 | 1028.1 |
| 20260505090042 | 60 | 96 | 1.7 | 7.0 | 0.00 | 0.01 | 0.01 | 89 | 1028.0 |
| 20260505084546 | 60 | 97 | 3.5 | 7.0 | 0.00 | 0.01 | 0.01 | 89 | 1027.9 |
| 20260505083040 | 60 | 90 | 2.6 | 7.0 | 0.00 | 0.01 | 0.01 | 89 | 1028.0 |
| 20260505081539 | 60 | 88 | 6.1 | 8.7 | 0.00 | 0.01 | 0.01 | 89 | 1027.9 |
| 20260505080038 | 60 | 90 | 6.1 | 8.7 | 0.00 | 0.01 | 0.01 | 89 | 1027.9 |
| 20260505074538 | 60 | 92 | 6.1 | 10.4 | 0.00 | 0.01 | 0.01 | 88 | 1027.8 |
| 20260505073043 | 60 | 82 | 6.1 | 10.4 | 0.00 | 0.01 | 0.01 | 88 | 1027.8 |
| 20260505071536 | 61 | 66 | 4.3 | 10.4 | 0.00 | 0.01 | 0.01 | 87 | 1027.7 |
| 20260505070043 | 61 | 82 | 7.0 | 11.3 | 0.00 | 0.01 | 0.01 | 87 | 1027.7 |
| 20260505064535 | 61 | 97 | 6.1 | 9.6 | 0.00 | 0.01 | 0.01 | 87 | 1027.7 |
| 20260505063034 | 60 | 92 | 5.2 | 9.6 | 0.00 | 0.01 | 0.01 | 88 | 1027.7 |
| 20260505061540 | 60 | 98 | 3.5 | 7.8 | 0.00 | 0.01 | 0.01 | 88 | 1027.8 |
| 20260505060032 | 60 | 107 | 5.2 | 8.7 | 0.00 | 0.01 | 0.01 | 88 | 1027.7 |
| 20260505054537 | 61 | 104 | 4.3 | 7.8 | 0.00 | 0.01 | 0.01 | 88 | 1027.6 |
| 20260505053033 | 61 | 104 | 6.1 | 9.6 | 0.00 | 0.01 | 0.01 | 88 | 1027.6 |
| 20260505051531 | 61 | 94 | 4.3 | 8.7 | 0.00 | 0.01 | 0.01 | 87 | 1027.6 |
| 20260505050129 | 62 | 98 | 6.1 | 10.4 | 0.00 | 0.01 | 0.01 | 87 | 1027.8 |
| 20260505041540 | 62 | 85 | 5.2 | 12.2 | 0.00 | 0.01 | 0.01 | 86 | 1027.7 |
| 20260505040036 | 62 | 80 | 6.1 | 12.2 | 0.00 | 0.01 | 0.01 | 86 | 1027.8 |